EW2112 Weather Reports


Display with metric or nautical units.
time (UTC)temp
F
wind
direction
speed
MPH
gust
MPH
rain 1hr
in
rain 24hr
in
rain mn
in
humidity
%
barometer
mb
20190525003257 65 360 3.0 6.0 0.00 0.00 0.00 50 1016.2
20190525001635 64 304 0.0 7.0 0.00 0.00 0.00 53 1016.4
20190525000123 63 312 1.0 4.0 0.00 0.00 0.00 54 1016.5
20190524234619 62 15 3.0 7.0 0.00 0.00 0.00 55 1016.6
20190524233035 60 355 3.0 8.0 0.00 0.00 0.00 56 1016.7
20190524231540 59 315 1.0 9.0 0.00 0.00 0.00 59 1016.9
20190524230037 58 298 1.0 4.0 0.00 0.00 0.00 61 1017.0
20190524224516 56 15 0.0 6.0 0.00 0.00 0.00 64 1017.0
20190524223033 55 355 3.0 7.0 0.00 0.00 0.00 64 1017.0
20190524221553 54 290 0.0 3.0 0.00 0.00 0.00 66 1016.9
20190524220023 54 5 3.0 6.0 0.00 0.00 0.00 66 1016.9
20190524214514 53 298 2.0 6.0 0.00 0.00 0.00 67 1017.0
20190524213020 52 315 2.0 4.0 0.00 0.00 0.00 71 1017.0
20190524211522 50 317 2.0 4.0 0.00 0.00 0.00 75 1016.9
20190524210032 49 316 0.0 0.0 0.00 0.00 0.00 77 1016.9
20190524204514 49 316 0.0 2.0 0.00 0.01 0.00 76 1016.8
20190524203007 50 316 0.0 2.0 0.00 0.01 0.00 75 1016.9
20190524201503 51 316 1.0 3.0 0.00 0.01 0.00 74 1016.8
20190524200002 51 315 1.0 4.0 0.00 0.01 0.00 72 1016.7
20190524194501 50 321 0.0 3.0 0.00 0.01 0.00 76 1016.6
20190524191653 49 321 0.0 0.0 0.00 0.01 0.00 80 1016.3
20190524190125 49 321 0.0 0.0 0.00 0.01 0.00 80 1016.4
20190524184652 50 321 0.0 0.0 0.00 0.01 0.00 78 1016.3
20190524183130 51 321 0.0 0.0 0.00 0.01 0.00 75 1016.4
20190524181625 52 321 0.0 0.0 0.00 0.01 0.00 73 1016.4
20190524180154 53 321 0.0 2.0 0.00 0.01 0.00 70 1016.4
20190524174603 54 321 0.0 4.0 0.00 0.01 0.00 69 1016.2
20190524173119 54 326 1.0 4.0 0.00 0.01 0.00 70 1016.3
20190524171617 54 313 0.0 3.0 0.00 0.01 0.00 70 1016.4
20190524170112 54 344 0.0 0.0 0.00 0.01 0.00 71 1016.4
20190524164605 55 344 0.0 3.0 0.00 0.01 0.00 71 1016.5
20190524163123 55 323 2.0 6.0 0.00 0.01 0.00 69 1016.6
20190524161621 56 338 3.0 5.0 0.00 0.01 0.00 70 1016.7
20190524160049 56 348 2.0 6.0 0.00 0.01 0.00 70 1016.7
20190524154615 56 333 3.0 8.0 0.00 0.01 0.00 73 1016.7
20190524153045 56 15 3.0 8.0 0.00 0.01 0.00 74 1016.8
20190524151540 56 5 2.0 6.0 0.00 0.01 0.00 74 1016.9
20190524150115 57 320 2.0 6.0 0.00 0.01 0.00 74 1016.9
20190524144526 57 345 2.0 5.0 0.00 0.01 0.00 73 1017.0
20190524143019 57 11 0.0 0.0 0.00 0.01 0.00 73 1017.0
20190524141538 57 11 0.0 0.0 0.00 0.01 0.00 74 1017.1
20190524140008 57 11 0.0 3.0 0.00 0.01 0.00 75 1017.2
20190524134517 57 11 0.0 3.0 0.00 0.01 0.01 76 1017.3
20190524133010 56 11 0.0 2.0 0.00 0.01 0.01 79 1017.5
20190524131516 55 11 0.0 0.0 0.00 0.01 0.01 79 1017.6
20190524130003 55 11 0.0 1.0 0.00 0.01 0.01 80 1017.6
20190524124501 54 11 0.0 0.0 0.00 0.01 0.01 83 1017.6
20190524123006 54 11 0.0 0.0 0.00 0.01 0.01 84 1017.8
20190524121527 54 11 0.0 0.0 0.00 0.01 0.01 84 1017.7
20190524120002 54 11 0.0 0.0 0.00 0.01 0.01 83 1017.8
20190524114515 55 11 0.0 0.0 0.00 0.01 0.01 83 1017.9
20190524111506 56 11 0.0 0.0 0.00 0.01 0.01 80 1017.9
20190524110008 56 11 0.0 0.0 0.00 0.01 0.01 79 1018.1
20190524103040 57 11 0.0 0.0 0.00 0.01 0.01 79 1018.0
20190524101510 58 11 0.0 0.0 0.00 0.01 0.01 79 1017.9
20190524100006 58 11 0.0 0.0 0.00 0.01 0.01 78 1018.1
20190524094509 58 11 0.0 0.0 0.00 0.01 0.01 77 1018.1
20190524093028 59 11 0.0 0.0 0.00 0.01 0.01 76 1017.9
20190524091515 59 11 0.0 0.0 0.00 0.01 0.01 75 1018.0
20190524090006 60 11 0.0 0.0 0.00 0.01 0.01 73 1017.8
20190524084530 60 11 0.0 0.0 0.00 0.01 0.01 72 1017.7
20190524083026 61 11 0.0 0.0 0.00 0.01 0.01 70 1017.5
20190524081506 62 11 0.0 0.0 0.00 0.01 0.01 68 1017.4
20190524074505 65 11 0.0 0.0 0.00 0.01 0.01 63 1017.1
20190524073004 66 11 0.0 0.0 0.00 0.01 0.01 60 1017.0
20190524071507 67 11 0.0 0.0 0.00 0.01 0.01 59 1017.0
20190524070006 69 11 0.0 0.0 0.00 0.01 0.01 58 1016.9
20190524063011 71 11 0.0 0.0 0.00 0.01 0.01 50 1016.7
20190524061509 72 11 0.0 0.0 0.00 0.01 0.01 48 1016.6
20190524060013 73 11 0.0 0.0 0.00 0.01 0.01 44 1016.6
20190524054518 73 11 0.0 0.0 0.00 0.01 0.01 43 1016.5
20190524053006 73 11 0.0 1.0 0.00 0.01 0.01 38 1016.4
20190524051516 74 11 0.0 0.0 0.00 0.01 0.01 38 1016.4
20190524050012 74 11 0.0 4.0 0.00 0.01 0.01 39 1016.4
20190524043012 74 340 1.0 4.0 0.00 0.01 0.01 38 1016.5
20190524040008 75 319 0.0 3.0 0.00 0.01 0.01 40 1016.6
20190524034514 75 19 2.0 5.0 0.00 0.01 0.01 40 1016.7
20190524033009 76 304 0.0 5.0 0.00 0.01 0.01 42 1016.8
20190524031514 75 273 0.0 7.0 0.00 0.01 0.01 45 1017.0
20190524030016 74 323 0.0 8.0 0.00 0.01 0.01 46 1017.2
20190524024504 74 309 3.0 7.0 0.00 0.01 0.01 50 1017.3
20190524023037 73 281 0.0 4.0 0.00 0.01 0.01 56 1017.4
20190524021510 71 286 1.0 8.0 0.00 0.01 0.01 58 1017.8
20190524014527 69 329 1.0 5.0 0.00 0.01 0.01 67 1018.4
20190524013017 67 331 1.0 5.0 0.00 0.01 0.01 71 1018.9
20190524011502 65 297 2.0 6.0 0.00 0.01 0.01 74 1019.2
20190524010024 64 278 0.0 0.0 0.00 0.01 0.01 79 1019.7